Wind_Speed
29 30 30 32 33 34 35 35 36 37 38 39 39 40 40 41 42 43 43 44 44 45 46 46 47 48 48 49 49 49 49 49 49 48 49 49 50 50 50 51 51 50 50
31 31 32 33 34 35 36 37 38 38 39 39 40 40 41 41 42 42 44 45 46 47 47 48 49 49 50 51 51 51 51 51 50 50 50 50 51 51 51 51 51 51 50
32 33 33 34 35 36 37 37 38 38 39 40 41 41 41 41 42 44 45 46 47 48 49 49 50 50 51 52 52 52 52 52 52 52 51 51 52 52 52 52 51 51 52
33 33 34 35 36 36 37 37 38 39 40 41 41 41 42 43 43 44 45 46 47 48 49 49 50 50 51 52 52 52 52 53 53 53 53 52 53 52 52 51 52 52 53
33 34 35 36 36 37 37 38 39 40 40 41 42 42 43 43 44 44 45 46 46 47 48 48 49 50 51 51 52 52 53 53 53 53 53 53 53 52 52 53 53 53 53
34 35 36 36 37 37 38 39 39 40 40 41 42 42 43 44 44 45 45 46 47 47 47 48 49 50 50 51 52 52 52 53 53 53 53 53 53 54 54 54 54 54 55
34 35 36 36 37 38 39 39 40 40 41 42 42 42 43 44 45 45 46 46 47 48 48 49 49 50 51 52 51 51 52 52 53 53 53 53 53 53 54 54 55 55 54
34 35 36 37 38 39 39 39 40 40 41 41 42 43 43 44 45 46 46 47 48 49 49 50 50 50 50 50 50 51 52 53 53 53 53 53 53 53 54 54 54 54 53
34 35 36 37 38 39 39 39 39 40 40 41 42 43 44 44 45 45 46 47 48 50 50 51 51 50 50 51 51 51 51 52 52 52 52 52 53 53 53 53 53 53 52
35 36 36 37 37 38 38 39 39 40 40 41 41 42 44 45 45 46 47 47 48 49 50 50 50 50 51 52 52 51 50 50 50 50 51 52 52 53 53 53 53 53 52
37 37 37 37 38 38 38 39 39 40 41 41 42 43 44 44 45 46 47 48 48 48 49 49 50 50 50 50 50 50 49 49 49 50 51 51 52 53 53 53 53 53 52
38 38 38 38 38 39 39 39 40 40 41 42 43 43 44 45 46 47 48 48 48 48 48 48 48 48 48 48 48 48 49 49 50 50 51 51 51 52 53 53 53 53 52
39 39 39 39 39 39 39 40 41 41 42 43 44 44 45 46 47 47 48 48 48 48 47 47 47 47 47 47 48 48 48 49 50 50 50 50 51 51 52 52 52 52 51
39 39 39 40 40 40 40 41 41 42 43 44 45 45 46 46 47 47 48 47 47 47 46 46 46 46 46 47 47 48 48 49 49 49 49 49 50 50 50 50 50 50 49
39 39 40 40 40 41 41 41 42 42 43 44 45 46 46 46 46 47 47 47 46 46 46 46 46 46 46 46 47 47 48 48 48 48 48 48 49 49 49 49 48 48 46
40 40 40 41 41 42 43 43 43 43 44 44 45 46 46 46 46 46 45 46 45 45 46 45 45 45 45 45 46 47 47 48 47 47 47 47 47 46 46 46 45 44 43
41 41 41 41 42 42 43 43 43 43 43 44 45 46 46 45 44 44 44 44 44 44 44 45 45 44 45 45 46 47 47 47 47 46 46 46 45 45 44 43 42 41 39
41 41 41 42 42 42 42 43 43 43 43 43 44 45 44 43 43 43 43 43 43 43 44 44 44 45 45 46 46 47 46 45 46 46 46 45 44 43 42 41 39 38 36
42 41 42 42 42 42 42 42 43 43 43 43 43 43 43 42 43 43 42 42 42 43 44 44 45 45 45 45 46 46 45 46 46 45 44 43 43 41 39 38 36 35 34
41 41 41 41 41 41 42 42 42 43 43 43 43 42 42 42 41 41 41 42 43 43 43 44 44 44 45 45 45 45 45 45 44 43 43 42 41 39 37 35 34 33 32
40 40 40 41 41 41 41 42 42 42 42 42 42 41 41 41 41 41 42 42 42 42 42 42 43 43 44 45 45 45 45 44 43 43 41 40 38 36 34 33 32 31 30
39 38 39 40 40 40 40 41 41 41 41 41 41 41 41 40 40 41 41 42 42 42 41 42 42 43 44 44 44 43 43 42 41 40 38 36 34 33 32 31 30 28 27
37 37 37 38 39 39 40 40 40 41 41 41 41 41 41 40 41 41 41 41 41 41 42 42 43 43 43 43 43 41 40 39 38 36 35 33 32 31 29 28 26 24 23
36 36 37 37 38 39 39 40 40 41 40 40 40 41 41 41 41 41 41 41 41 42 42 42 43 43 42 41 40 39 38 37 35 34 32 31 30 27 25 24 22 21 21
36 36 37 38 39 39 40 40 40 41 41 41 41 41 41 41 41 41 41 41 41 41 41 41 41 40 39 38 37 37 36 34 33 31 30 28 26 24 23 22 21 20 20
36 37 38 38 39 39 39 40 40 40 40 40 41 41 40 41 41 41 41 40 40 40 39 39 39 38 37 36 35 34 33 32 30 28 27 25 24 22 21 20 20 19 19
Wind_Direction
259 262 263 263 264 266 268 269 270 273 274 274 275 275 274 274 274 273 274 274 275 276 277 278 279 279 279 280 281 281 282 282 282 283 284 284 285 285 285 286 285 285 285
260 262 264 265 266 267 269 270 272 273 275 275 276 276 277 276 275 275 275 276 276 276 278 278 279 280 280 280 281 281 282 282 283 284 284 285 285 285 285 285 285 284 285
263 264 265 266 268 269 270 272 273 274 275 275 276 277 278 278 278 277 277 277 277 277 278 279 280 280 280 281 282 282 282 283 283 283 284 284 284 284 285 285 285 285 285
266 267 267 269 271 272 273 273 274 274 275 276 277 277 279 279 279 279 279 279 279 279 279 280 281 281 282 282 282 282 282 283 283 283 284 284 284 284 284 284 284 285 285
268 268 269 271 273 274 275 275 275 275 276 277 277 277 279 280 281 281 281 281 281 281 281 282 282 283 283 283 283 283 283 284 284 284 284 284 284 284 284 284 285 285 285
269 270 271 273 275 275 275 275 275 275 276 277 277 277 279 280 281 281 281 281 282 283 283 284 284 284 283 283 283 284 285 285 285 285 284 284 285 284 284 285 286 286 286
271 272 274 275 277 276 276 276 275 275 276 277 277 277 278 280 281 281 282 282 283 283 284 285 285 285 285 285 285 285 285 286 286 285 285 285 285 285 285 286 286 287 286
274 275 276 277 278 278 278 277 277 276 276 277 277 278 279 280 282 282 283 283 283 283 284 285 285 286 287 286 285 285 286 286 286 286 286 286 286 286 286 286 287 287 287
276 277 278 278 279 279 279 278 277 277 277 278 278 279 280 281 282 283 284 284 285 284 284 285 285 285 286 286 286 285 285 286 286 285 285 285 286 286 287 287 287 287 287
277 278 278 279 280 280 279 278 278 278 278 278 279 280 281 282 283 283 284 286 286 285 285 285 285 285 285 285 286 286 285 285 285 285 286 287 287 287 287 287 287 287 287
277 278 278 279 280 281 281 280 280 279 279 280 280 281 282 283 283 284 285 286 286 287 287 286 286 286 286 286 286 286 286 286 285 286 287 287 287 287 287 287 287 288 288
277 277 278 279 280 281 281 281 281 281 282 282 282 283 284 284 285 285 285 286 287 287 287 287 287 286 286 286 286 287 287 287 286 286 287 287 287 287 287 287 287 287 287
277 277 278 279 280 281 282 283 283 283 284 285 285 285 285 286 286 286 287 287 287 287 287 287 287 287 286 286 287 287 288 288 288 288 288 288 288 288 288 287 287 287 287
277 278 279 279 280 282 283 284 285 285 285 286 286 287 286 286 286 287 287 287 287 287 287 287 287 287 287 287 288 289 290 291 291 290 290 290 290 290 289 289 288 287 286
278 279 279 279 280 281 283 285 286 286 287 287 287 287 287 287 287 288 288 288 288 287 287 288 288 288 288 289 290 291 292 292 292 292 292 292 292 291 291 291 289 288 286
276 277 278 279 281 282 284 285 286 287 288 288 289 289 289 288 287 288 289 289 288 288 288 288 288 289 289 290 291 291 292 292 293 293 293 294 294 293 293 292 291 288 286
276 277 278 279 281 283 284 285 286 287 289 290 290 290 290 290 289 289 289 289 289 289 289 289 289 289 289 290 291 292 293 293 293 294 294 294 294 294 293 292 290 288 287
275 277 278 280 281 283 285 286 286 287 288 289 290 291 291 291 290 290 290 290 290 290 290 289 290 290 291 291 292 293 293 293 293 294 294 293 293 293 292 291 290 289 287
276 277 279 280 282 283 285 286 287 287 288 289 290 290 290 291 291 291 291 291 291 291 290 291 291 291 292 293 293 293 293 293 293 293 293 293 293 292 291 290 289 289 288
277 278 279 280 281 283 284 286 287 288 288 289 290 290 290 290 291 291 292 292 292 292 291 291 292 293 293 294 294 294 294 293 293 293 293 293 292 291 290 289 288 288 287
278 279 279 281 282 284 285 286 287 288 289 290 290 290 290 290 290 291 292 293 293 292 292 293 293 294 295 295 295 294 294 293 293 293 292 292 291 290 288 288 287 287 285
278 279 280 282 283 284 285 286 287 288 288 288 289 289 290 290 290 291 292 293 293 293 294 294 295 295 296 296 296 296 295 294 293 292 292 291 289 288 286 286 286 285 283
279 279 281 283 284 285 286 287 287 288 288 288 288 288 288 289 290 291 292 293 294 294 294 295 296 296 296 296 296 296 295 295 294 292 291 290 289 287 284 283 283 282 279
280 281 283 285 286 286 286 287 287 287 287 287 287 287 288 289 290 291 291 292 294 294 295 295 296 297 296 296 295 295 295 295 294 292 291 289 287 283 281 280 279 278 277
281 282 283 285 286 286 287 287 287 287 287 287 287 288 288 288 289 291 291 292 293 294 295 296 297 297 296 296 295 295 295 294 293 291 290 287 284 280 277 276 276 276 275
282 283 284 286 287 287 288 288 288 288 288 288 288 288 288 289 290 291 292 293 293 294 296 297 298 297 296 295 294 295 294 293 291 290 287 284 280 276 273 272 273 273 274
Height
5700 5701 5701 5701 5702 5702 5702 5701 5701 5701 5700 5700 5699 5698 5697 5696 5695 5694 5693 5691 5690 5689 5687 5685 5683 5681 5679 5677 5674 5672 5670 5668 5666 5664 5660 5657 5654 5651 5647 5644 5641 5638 5635
5693 5693 5693 5693 5693 5693 5692 5692 5692 5691 5690 5689 5688 5687 5686 5685 5683 5682 5681 5679 5678 5676 5674 5672 5670 5668 5666 5663 5661 5659 5656 5654 5652 5650 5646 5642 5639 5636 5633 5630 5627 5624 5621
5685 5685 5684 5684 5684 5683 5683 5682 5681 5681 5680 5678 5677 5676 5675 5673 5672 5670 5669 5667 5665 5663 5661 5659 5657 5655 5652 5650 5647 5645 5642 5639 5637 5634 5632 5628 5625 5621 5619 5616 5612 5609 5606
5676 5676 5675 5675 5674 5673 5672 5671 5671 5670 5669 5667 5666 5665 5663 5662 5660 5658 5656 5654 5652 5650 5648 5646 5643 5641 5638 5635 5633 5630 5627 5624 5622 5619 5617 5613 5610 5606 5604 5601 5598 5595 5592
5667 5666 5666 5665 5664 5663 5662 5660 5659 5658 5657 5655 5654 5653 5652 5650 5648 5646 5644 5642 5640 5637 5635 5632 5629 5627 5624 5621 5618 5616 5613 5610 5606 5604 5601 5598 5595 5591 5588 5586 5583 5580 5577
5658 5657 5656 5655 5654 5653 5651 5649 5648 5646 5645 5644 5642 5641 5640 5638 5636 5634 5631 5629 5627 5625 5622 5619 5616 5613 5610 5607 5604 5601 5598 5594 5591 5588 5586 5583 5580 5576 5573 5570 5567 5564 5562
5648 5647 5646 5645 5643 5642 5640 5638 5636 5635 5633 5632 5631 5629 5627 5625 5623 5621 5618 5616 5614 5611 5609 5606 5603 5599 5596 5593 5590 5586 5583 5579 5576 5573 5570 5567 5564 5561 5558 5555 5551 5548 5545
5638 5637 5636 5634 5633 5631 5629 5627 5625 5623 5622 5620 5619 5617 5615 5613 5610 5608 5605 5603 5601 5598 5595 5592 5589 5585 5582 5578 5575 5571 5568 5564 5561 5558 5555 5552 5548 5545 5541 5538 5535 5532 5529
5628 5627 5625 5624 5622 5620 5618 5616 5614 5612 5610 5608 5607 5605 5602 5600 5597 5595 5592 5590 5587 5584 5581 5578 5574 5571 5567 5563 5560 5557 5554 5550 5546 5542 5539 5536 5533 5529 5525 5522 5519 5515 5513
5618 5617 5615 5613 5611 5609 5607 5605 5603 5601 5599 5596 5594 5592 5590 5587 5584 5582 5579 5576 5574 5570 5567 5563 5560 5556 5552 5548 5545 5542 5539 5536 5532 5528 5525 5521 5517 5514 5510 5506 5503 5499 5496
5607 5606 5604 5602 5600 5598 5596 5593 5591 5589 5587 5585 5583 5580 5577 5574 5571 5568 5565 5562 5559 5556 5553 5549 5545 5541 5537 5534 5530 5527 5524 5521 5518 5514 5510 5506 5502 5499 5495 5491 5487 5483 5480
5596 5595 5593 5591 5589 5587 5585 5582 5580 5578 5575 5573 5570 5567 5564 5561 5558 5555 5551 5548 5545 5542 5538 5535 5531 5527 5523 5520 5516 5513 5509 5506 5503 5499 5496 5492 5488 5484 5480 5476 5472 5468 5464
5585 5583 5582 5580 5577 5575 5573 5571 5568 5566 5563 5560 5557 5555 5551 5548 5544 5541 5537 5534 5530 5527 5524 5520 5517 5513 5509 5506 5502 5499 5495 5491 5488 5484 5481 5477 5473 5469 5464 5460 5456 5452 5449
5573 5571 5569 5568 5566 5563 5561 5559 5556 5553 5550 5547 5544 5541 5538 5534 5530 5527 5524 5520 5516 5513 5510 5506 5503 5499 5496 5492 5489 5485 5481 5477 5473 5469 5466 5462 5457 5453 5449 5445 5441 5437 5435
5560 5559 5557 5556 5554 5551 5549 5547 5544 5541 5537 5534 5531 5528 5524 5521 5517 5513 5510 5506 5503 5499 5496 5493 5489 5486 5482 5478 5475 5471 5467 5463 5458 5454 5450 5447 5443 5438 5434 5430 5426 5422 5419
5548 5546 5545 5543 5541 5539 5537 5534 5531 5528 5524 5521 5517 5514 5510 5507 5503 5500 5496 5492 5489 5486 5482 5479 5476 5472 5469 5465 5462 5458 5453 5449 5444 5440 5436 5432 5428 5424 5420 5416 5412 5408 5406
5535 5534 5532 5531 5529 5526 5524 5522 5519 5516 5512 5508 5504 5501 5497 5493 5490 5486 5483 5479 5475 5472 5469 5466 5462 5459 5455 5452 5448 5444 5440 5435 5431 5427 5423 5419 5415 5411 5407 5403 5399 5396 5393
5522 5521 5519 5518 5516 5513 5511 5508 5506 5503 5500 5496 5492 5488 5484 5481 5477 5473 5470 5466 5463 5459 5456 5452 5449 5446 5442 5438 5434 5430 5426 5422 5417 5413 5409 5406 5402 5398 5395 5391 5387 5385 5382
5509 5508 5506 5505 5503 5500 5498 5495 5492 5490 5487 5483 5480 5476 5472 5468 5465 5461 5457 5454 5450 5447 5443 5440 5436 5432 5429 5425 5421 5416 5412 5408 5404 5400 5396 5393 5389 5386 5382 5379 5376 5374 5371
5496 5495 5493 5491 5489 5487 5485 5482 5480 5477 5473 5470 5467 5463 5460 5456 5453 5449 5446 5442 5438 5434 5431 5427 5423 5419 5416 5412 5407 5403 5399 5395 5391 5387 5384 5380 5377 5373 5371 5368 5366 5363 5361
5484 5482 5480 5478 5476 5474 5472 5469 5467 5464 5461 5458 5454 5451 5447 5444 5441 5438 5434 5430 5426 5422 5418 5415 5411 5407 5403 5398 5394 5390 5386 5382 5378 5374 5371 5368 5365 5362 5359 5357 5355 5353 5351
5471 5469 5468 5466 5464 5462 5459 5457 5454 5451 5448 5445 5442 5439 5435 5432 5429 5425 5422 5418 5414 5410 5406 5403 5399 5394 5390 5386 5381 5377 5373 5369 5366 5362 5359 5356 5353 5351 5349 5347 5345 5343 5342
5459 5457 5456 5454 5452 5449 5447 5444 5441 5439 5436 5433 5430 5427 5424 5420 5417 5413 5410 5406 5402 5398 5394 5390 5386 5382 5377 5373 5369 5365 5361 5358 5354 5351 5348 5345 5343 5341 5339 5337 5336 5335 5334
5447 5445 5444 5442 5440 5437 5434 5432 5429 5426 5423 5420 5418 5415 5411 5408 5405 5401 5397 5394 5390 5386 5382 5378 5374 5370 5365 5361 5357 5353 5349 5346 5343 5340 5338 5335 5333 5332 5330 5329 5328 5328 5327
5435 5434 5432 5430 5427 5425 5422 5420 5417 5414 5411 5408 5405 5402 5399 5395 5392 5389 5385 5381 5378 5374 5370 5366 5362 5357 5353 5349 5346 5342 5339 5335 5332 5330 5328 5326 5325 5323 5323 5322 5322 5321 5321
5423 5421 5419 5417 5415 5413 5410 5407 5404 5402 5399 5396 5393 5389 5386 5383 5380 5376 5373 5369 5366 5362 5358 5354 5350 5346 5342 5338 5335 5331 5328 5325 5323 5320 5319 5318 5317 5316 5315 5315 5315 5315 5314